Tracking 31027 objects as of 19-Jul-2025
HD Live streaming from Space Station
objects crossing your sky now

DELTA 1 DEB

Track DELTA 1 DEB now!
10-day predictions


NORAD ID: 10184
Int'l Code: 1977-065N
Perigee: 518.8 km
Apogee: 1,651.5 km
Inclination: 29.1 °
Period: 106.8 minutes
Semi major axis: 7456 km
RCS: 4.0516 m2 (large)
Launch date: July 14, 1977
Source: United States (US)
Launch site: AIR FORCE EASTERN TEST RANGE (AFETR)

Note: This is SATELLITE DEBRIS
Your satellite tracking list
BELINTERSAT 1
Track 1 satellite(s)




NASA's NSSDC Master Catalog

Two Line Element Set (TLE):
1 10184U 77065N   25199.41933784  .00002023  00000-0  47567-3 0  9993
2 10184  29.0742 181.7410 0759538   6.8538 354.1779 13.48443424322166
Source of the keplerian elements: AFSPC